Вернуться в каталог

STARLINK-37400

АктивенСвязьSSO
NORAD 68777·PAYLOAD·🇺🇸 United States

Запущен Apr 19, 2026 с Vandenberg Space Force Base

Loading…

Ближайшие Пролёты (ближайшие 24 часа)

TLE

СвежийSource: CelesTrak SupGP

Эпоха: Sep 14, 2026, 14:45 UTC

1 68777C 26086M   26257.61506944 -.00021150  00000+0 -65715-3 0  2578
2 68777  97.2842 293.1398 0001092 112.4673 258.9289 15.33421913    16

Отслеживайте STARLINK-37400 в реальном времени с AllMySat

Download on the App Store